Volver al catálogo

STARLETTE

ActivoCienciaLEO
NORAD 7646·PAYLOAD·🇫🇷 France

Lanzado Feb 6, 1975 desde Guiana Space Centre

Loading…

Próximos Pases (próximas 24 horas)

TLE

ActualizadoSource: CelesTrak SupGP

Época: Sep 14, 2026, 00:00 UTC

1 07646C 75010A   26257.00000000 -.00000011  00000+0 -84558-5 0  2573
2 07646  49.8218 114.0388 0205637 356.4474 309.3510 13.82351656    10

Sigue STARLETTE en tiempo real con AllMySat

Download on the App Store